Time,TemperatureF,DewpointF,PressureIn,WindDirection,WindDirectionDegrees,WindSpeedMPH,WindSpeedGustMPH,Humidity,HourlyPrecipIn,Conditions,Clouds,dailyrainin,SoftwareType,DateUTC
2013-02-09 00:01:00,40.0,39.0,-100.00,ESE,121,1.0,1.0,96,-99.99,,,-99.99,,2013-02-09 08:01:00,
2013-02-09 00:11:00,40.0,39.0,-100.00,SW,228,0.0,1.0,96,-99.99,,,-99.99,,2013-02-09 08:11:00,
2013-02-09 00:21:00,40.0,39.0,-100.00,North,7,1.0,2.0,96,-99.99,,,-99.99,,2013-02-09 08:21:00,
2013-02-09 00:31:00,40.0,39.0,-100.00,North,352,0.0,1.0,95,-99.99,,,-99.99,,2013-02-09 08:31:00,
2013-02-09 00:41:00,40.0,39.0,-100.00,North,4,1.0,1.0,96,-99.99,,,-99.99,,2013-02-09 08:41:00,
2013-02-09 00:52:00,40.0,39.0,-100.00,NW,319,0.0,1.0,95,-99.99,,,-99.99,,2013-02-09 08:52:00,
2013-02-09 01:02:00,40.0,39.0,-100.00,NE,38,1.0,2.0,96,-99.99,,,-99.99,,2013-02-09 09:02:00,
2013-02-09 01:11:00,39.0,38.0,-100.00,NE,38,1.0,3.0,96,-99.99,,,-99.99,,2013-02-09 09:11:00,
2013-02-09 01:21:00,39.0,38.0,-100.00,NNW,330,1.0,3.0,96,-99.99,,,-99.99,,2013-02-09 09:21:00,
2013-02-09 01:31:00,38.0,37.0,-100.00,NW,318,1.0,2.0,96,-99.99,,,-99.99,,2013-02-09 09:31:00,
2013-02-09 01:41:00,38.0,37.0,-100.00,NE,51,1.0,3.0,96,-99.99,,,-99.99,,2013-02-09 09:41:00,
2013-02-09 01:51:00,38.0,37.0,-100.00,NE,44,1.0,2.0,96,-99.99,,,-99.99,,2013-02-09 09:51:00,
2013-02-09 02:01:00,38.0,37.0,-100.00,NNE,13,1.0,2.0,96,-99.99,,,-99.99,,2013-02-09 10:01:00,
2013-02-09 02:11:00,38.0,37.0,-100.00,NNE,15,1.0,2.0,96,-99.99,,,-99.99,,2013-02-09 10:11:00,
2013-02-09 02:21:00,38.0,37.0,-100.00,NE,50,1.0,2.0,97,-99.99,,,-99.99,,2013-02-09 10:21:00,
2013-02-09 02:31:00,38.0,37.0,-100.00,NNE,15,1.0,2.0,97,-99.99,,,-99.99,,2013-02-09 10:31:00,
2013-02-09 02:41:00,37.0,36.0,-100.00,NE,48,1.0,1.0,96,-99.99,,,-99.99,,2013-02-09 10:41:00,
2013-02-09 02:51:00,37.0,36.0,-100.00,North,4,1.0,3.0,97,-99.99,,,-99.99,,2013-02-09 10:51:00,
2013-02-09 03:01:00,37.0,36.0,-100.00,NNE,14,1.0,2.0,97,-99.99,,,-99.99,,2013-02-09 11:01:00,
2013-02-09 03:11:00,37.0,36.0,-100.00,NE,42,1.0,3.0,97,-99.99,,,-99.99,,2013-02-09 11:11:00,
2013-02-09 03:21:00,37.0,36.0,-100.00,NE,43,1.0,3.0,97,-99.99,,,-99.99,,2013-02-09 11:21:00,
2013-02-09 03:31:00,37.0,36.0,-100.00,NE,34,1.0,2.0,97,-99.99,,,-99.99,,2013-02-09 11:31:00,
2013-02-09 03:41:00,37.0,36.0,-100.00,NNW,334,0.0,1.0,97,-99.99,,,-99.99,,2013-02-09 11:41:00,
2013-02-09 03:52:00,36.0,35.0,-100.00,SW,235,0.0,1.0,97,-99.99,,,-99.99,,2013-02-09 11:52:00,
2013-02-09 04:02:00,36.0,35.0,-100.00,SW,235,0.0,1.0,97,-99.99,,,-99.99,,2013-02-09 12:02:00,
2013-02-09 04:11:00,36.0,35.0,-100.00,North,355,0.0,1.0,97,-99.99,,,-99.99,,2013-02-09 12:11:00,
2013-02-09 04:21:00,34.0,33.0,-100.00,WSW,253,0.0,1.0,97,-99.99,,,-99.99,,2013-02-09 12:21:00,
2013-02-09 04:32:00,34.0,33.0,-100.00,ESE,103,0.0,1.0,97,-99.99,,,-99.99,,2013-02-09 12:32:00,
2013-02-09 04:42:00,36.0,35.0,-100.00,NNE,13,0.0,1.0,98,-99.99,,,-99.99,,2013-02-09 12:42:00,
2013-02-09 04:52:00,35.0,34.0,-100.00,NE,49,0.0,1.0,98,-99.99,,,-99.99,,2013-02-09 12:52:00,
2013-02-09 05:02:00,34.0,34.0,-100.00,NE,35,1.0,2.0,98,-99.99,,,-99.99,,2013-02-09 13:02:00,
2013-02-09 05:11:00,36.0,35.0,-100.00,NE,36,1.0,2.0,98,-99.99,,,-99.99,,2013-02-09 13:11:00,
2013-02-09 05:21:00,36.0,35.0,-100.00,NNE,33,1.0,3.0,98,-99.99,,,-99.99,,2013-02-09 13:21:00,
2013-02-09 05:31:00,36.0,35.0,-100.00,NE,39,1.0,2.0,97,-99.99,,,-99.99,,2013-02-09 13:31:00,
2013-02-09 05:42:00,35.0,34.0,-100.00,NNE,31,1.0,2.0,97,-99.99,,,-99.99,,2013-02-09 13:42:00,
2013-02-09 05:51:00,35.0,34.0,-100.00,NNE,17,1.0,2.0,98,-99.99,,,-99.99,,2013-02-09 13:51:00,
2013-02-09 06:01:00,35.0,34.0,-100.00,North,357,1.0,2.0,98,-99.99,,,-99.99,,2013-02-09 14:01:00,
2013-02-09 06:11:00,35.0,34.0,-100.00,NNW,342,1.0,2.0,98,-99.99,,,-99.99,,2013-02-09 14:11:00,
2013-02-09 06:21:00,35.0,34.0,-100.00,North,360,1.0,2.0,98,-99.99,,,-99.99,,2013-02-09 14:21:00,
2013-02-09 06:31:00,35.0,34.0,-100.00,NE,39,1.0,1.0,98,-99.99,,,-99.99,,2013-02-09 14:31:00,
2013-02-09 06:41:00,35.0,34.0,-100.00,NE,37,1.0,1.0,98,-99.99,,,-99.99,,2013-02-09 14:41:00,
2013-02-09 06:52:00,35.0,34.0,-100.00,North,8,1.0,2.0,98,-99.99,,,-99.99,,2013-02-09 14:52:00,
2013-02-09 07:01:00,35.0,34.0,-100.00,NNE,22,1.0,2.0,97,-99.99,,,-99.99,,2013-02-09 15:01:00,
2013-02-09 07:11:00,35.0,34.0,-100.00,NE,42,1.0,2.0,96,-99.99,,,-99.99,,2013-02-09 15:11:00,
2013-02-09 07:21:00,34.0,33.0,-100.00,NE,39,1.0,2.0,97,-99.99,,,-99.99,,2013-02-09 15:21:00,
2013-02-09 07:31:00,34.0,33.0,-100.00,NNE,30,1.0,2.0,97,-99.99,,,-99.99,,2013-02-09 15:31:00,
2013-02-09 07:41:00,35.0,34.0,-100.00,NNW,346,1.0,3.0,97,-99.99,,,-99.99,,2013-02-09 15:41:00,
2013-02-09 07:51:00,35.0,34.0,-100.00,NNW,345,1.0,3.0,98,-99.99,,,-99.99,,2013-02-09 15:51:00,
2013-02-09 08:01:00,37.0,36.0,-100.00,NNW,334,1.0,3.0,97,-99.99,,,-99.99,,2013-02-09 16:01:00,
2013-02-09 08:11:00,37.0,36.0,-100.00,NNW,341,1.0,2.0,97,-99.99,,,-99.99,,2013-02-09 16:11:00,
2013-02-09 08:21:00,39.0,38.0,-100.00,NE,48,0.0,2.0,96,-99.99,,,-99.99,,2013-02-09 16:21:00,
2013-02-09 08:31:00,40.0,39.0,-100.00,NNW,341,0.0,1.0,95,-99.99,,,-99.99,,2013-02-09 16:31:00,
2013-02-09 08:41:00,41.0,39.0,-100.00,NNW,335,0.0,2.0,93,-99.99,,,-99.99,,2013-02-09 16:41:00,
2013-02-09 08:51:00,42.0,40.0,-100.00,WSW,255,0.0,3.0,91,-99.99,,,-99.99,,2013-02-09 16:51:00,
2013-02-09 09:01:00,42.0,39.0,-100.00,NW,315,0.0,2.0,88,-99.99,,,-99.99,,2013-02-09 17:01:00,
2013-02-09 09:11:00,42.0,39.0,-100.00,West,279,0.0,1.0,89,-99.99,,,-99.99,,2013-02-09 17:11:00,
2013-02-09 09:21:00,43.0,40.0,-100.00,WNW,303,0.0,1.0,89,-99.99,,,-99.99,,2013-02-09 17:21:00,
2013-02-09 09:31:00,44.0,41.0,-100.00,NW,309,1.0,2.0,89,-99.99,,,-99.99,,2013-02-09 17:31:00,
2013-02-09 09:41:00,45.0,42.0,-100.00,WSW,257,1.0,2.0,89,-99.99,,,-99.99,,2013-02-09 17:41:00,
2013-02-09 09:52:00,46.0,42.0,-100.00,WNW,294,1.0,2.0,86,-99.99,,,-99.99,,2013-02-09 17:52:00,
2013-02-09 10:01:00,48.0,42.0,-100.00,NW,325,1.0,2.0,81,-99.99,,,-99.99,,2013-02-09 18:01:00,
2013-02-09 10:11:00,49.0,40.0,-100.00,NNW,334,1.0,2.0,72,-99.99,,,-99.99,,2013-02-09 18:11:00,
2013-02-09 10:23:00,49.0,38.0,-100.00,East,101,1.0,3.0,66,-99.99,,,-99.99,,2013-02-09 18:23:00,
2013-02-09 10:31:00,50.0,39.0,-100.00,ESE,114,2.0,5.0,65,-99.99,,,-99.99,,2013-02-09 18:31:00,
2013-02-09 10:41:00,51.0,40.0,-100.00,South,182,1.0,2.0,66,-99.99,,,-99.99,,2013-02-09 18:41:00,
2013-02-09 10:51:00,50.0,39.0,-100.00,SW,223,1.0,5.0,65,-99.99,,,-99.99,,2013-02-09 18:51:00,
2013-02-09 11:01:00,52.0,41.0,-100.00,SE,143,1.0,5.0,65,-99.99,,,-99.99,,2013-02-09 19:01:00,
2013-02-09 11:11:00,51.0,39.0,-100.00,SSW,206,1.0,4.0,63,-99.99,,,-99.99,,2013-02-09 19:11:00,
2013-02-09 11:22:00,50.0,38.0,-100.00,West,277,1.0,2.0,64,-99.99,,,-99.99,,2013-02-09 19:22:00,
2013-02-09 11:31:00,51.0,40.0,-100.00,North,351,1.0,4.0,65,-99.99,,,-99.99,,2013-02-09 19:31:00,
2013-02-09 11:41:00,51.0,37.0,-100.00,NE,34,1.0,4.0,59,-99.99,,,-99.99,,2013-02-09 19:41:00,
2013-02-09 11:52:00,53.0,38.0,-100.00,West,280,1.0,5.0,57,-99.99,,,-99.99,,2013-02-09 19:52:00,
2013-02-09 12:01:00,53.0,37.0,-100.00,WNW,292,2.0,5.0,55,-99.99,,,-99.99,,2013-02-09 20:01:00,
2013-02-09 12:11:00,54.0,38.0,-100.00,NW,310,1.0,6.0,54,-99.99,,,-99.99,,2013-02-09 20:11:00,
2013-02-09 12:21:00,54.0,38.0,-100.00,NE,36,1.0,3.0,54,-99.99,,,-99.99,,2013-02-09 20:21:00,
2013-02-09 12:31:00,52.0,37.0,-100.00,ENE,68,1.0,5.0,56,-99.99,,,-99.99,,2013-02-09 20:31:00,
2013-02-09 12:41:00,52.0,37.0,-100.00,NE,52,1.0,2.0,57,-99.99,,,-99.99,,2013-02-09 20:41:00,
2013-02-09 12:52:00,54.0,39.0,-100.00,NNW,348,1.0,4.0,56,-99.99,,,-99.99,,2013-02-09 20:52:00,
2013-02-09 13:01:00,55.0,36.0,-100.00,SSE,151,2.0,6.0,49,-99.99,,,-99.99,,2013-02-09 21:01:00,
2013-02-09 13:11:00,56.0,38.0,-100.00,SSE,153,2.0,8.0,50,-99.99,,,-99.99,,2013-02-09 21:11:00,
2013-02-09 13:21:00,57.0,39.0,-100.00,SSE,166,2.0,6.0,50,-99.99,,,-99.99,,2013-02-09 21:21:00,
2013-02-09 13:31:00,57.0,39.0,-100.00,SSE,166,2.0,6.0,50,-99.99,,,-99.99,,2013-02-09 21:31:00,
2013-02-09 13:41:00,54.0,38.0,-100.00,ESE,117,2.0,5.0,54,-99.99,,,-99.99,,2013-02-09 21:41:00,
2013-02-09 13:52:00,55.0,33.0,-100.00,SW,229,5.0,12.0,44,-99.99,,,-99.99,,2013-02-09 21:52:00,
2013-02-09 14:01:00,55.0,33.0,-100.00,SW,229,5.0,12.0,44,-99.99,,,-99.99,,2013-02-09 22:01:00,
2013-02-09 14:11:00,55.0,34.0,-100.00,WSW,240,5.0,9.0,45,-99.99,,,-99.99,,2013-02-09 22:11:00,
2013-02-09 14:21:00,55.0,34.0,-100.00,SW,215,6.0,13.0,45,-99.99,,,-99.99,,2013-02-09 22:21:00,
2013-02-09 14:31:00,55.0,33.0,-100.00,SW,214,4.0,11.0,43,-99.99,,,-99.99,,2013-02-09 22:31:00,
2013-02-09 14:41:00,55.0,33.0,-100.00,SW,220,4.0,12.0,43,-99.99,,,-99.99,,2013-02-09 22:41:00,
2013-02-09 14:51:00,55.0,32.0,-100.00,SSW,201,3.0,8.0,42,-99.99,,,-99.99,,2013-02-09 22:51:00,
2013-02-09 15:01:00,56.0,33.0,-100.00,SSW,212,5.0,12.0,41,-99.99,,,-99.99,,2013-02-09 23:01:00,
2013-02-09 15:11:00,55.0,33.0,-100.00,WSW,245,6.0,13.0,43,-99.99,,,-99.99,,2013-02-09 23:11:00,
2013-02-09 15:21:00,55.0,33.0,-100.00,SW,234,4.0,9.0,44,-99.99,,,-99.99,,2013-02-09 23:21:00,
2013-02-09 15:31:00,55.0,33.0,-100.00,SW,236,5.0,12.0,44,-99.99,,,-99.99,,2013-02-09 23:31:00,
2013-02-09 15:41:00,55.0,34.0,-100.00,WSW,244,5.0,10.0,45,-99.99,,,-99.99,,2013-02-09 23:41:00,
2013-02-09 15:52:00,55.0,35.0,-100.00,WSW,242,5.0,12.0,46,-99.99,,,-99.99,,2013-02-09 23:52:00,
2013-02-09 16:02:00,55.0,34.0,-100.00,SW,229,5.0,10.0,45,-99.99,,,-99.99,,2013-02-10 00:02:00,
2013-02-09 16:11:00,54.0,35.0,-100.00,SW,216,4.0,10.0,49,-99.99,,,-99.99,,2013-02-10 00:11:00,
2013-02-09 16:21:00,54.0,36.0,-100.00,SW,229,5.0,12.0,50,-99.99,,,-99.99,,2013-02-10 00:21:00,
2013-02-09 16:31:00,54.0,35.0,-100.00,WSW,240,4.0,9.0,49,-99.99,,,-99.99,,2013-02-10 00:31:00,
2013-02-09 16:41:00,54.0,35.0,-100.00,WSW,244,3.0,6.0,49,-99.99,,,-99.99,,2013-02-10 00:41:00,
2013-02-09 16:51:00,54.0,36.0,-100.00,SW,235,3.0,8.0,50,-99.99,,,-99.99,,2013-02-10 00:51:00,
2013-02-09 17:01:00,54.0,37.0,-100.00,SW,233,3.0,6.0,52,-99.99,,,-99.99,,2013-02-10 01:01:00,
2013-02-09 17:11:00,53.0,35.0,-100.00,SW,217,4.0,8.0,51,-99.99,,,-99.99,,2013-02-10 01:11:00,
2013-02-09 17:21:00,53.0,35.0,-100.00,SW,223,3.0,6.0,51,-99.99,,,-99.99,,2013-02-10 01:21:00,
2013-02-09 17:31:00,53.0,36.0,-100.00,SW,220,2.0,6.0,53,-99.99,,,-99.99,,2013-02-10 01:31:00,
2013-02-09 17:41:00,53.0,36.0,-100.00,SW,220,2.0,6.0,53,-99.99,,,-99.99,,2013-02-10 01:41:00,
2013-02-09 17:51:00,51.0,36.0,-100.00,WSW,239,2.0,5.0,56,-99.99,,,-99.99,,2013-02-10 01:51:00,
2013-02-09 18:01:00,50.0,35.0,-100.00,WSW,244,1.0,4.0,57,-99.99,,,-99.99,,2013-02-10 02:01:00,
2013-02-09 18:11:00,50.0,37.0,-100.00,SSW,208,0.0,1.0,60,-99.99,,,-99.99,,2013-02-10 02:11:00,
2013-02-09 18:22:00,48.0,36.0,-100.00,ESE,113,1.0,2.0,62,-99.99,,,-99.99,,2013-02-10 02:22:00,
2013-02-09 18:31:00,47.0,37.0,-100.00,NE,49,2.0,3.0,67,-99.99,,,-99.99,,2013-02-10 02:31:00,
2013-02-09 18:41:00,45.0,37.0,-100.00,NNE,28,1.0,3.0,72,-99.99,,,-99.99,,2013-02-10 02:41:00,
2013-02-09 18:52:00,45.0,37.0,-100.00,NNE,27,1.0,2.0,74,-99.99,,,-99.99,,2013-02-10 02:52:00,
2013-02-09 19:01:00,44.0,37.0,-100.00,NNE,26,2.0,3.0,76,-99.99,,,-99.99,,2013-02-10 03:01:00,
2013-02-09 19:11:00,44.0,37.0,-100.00,NNE,17,1.0,4.0,76,-99.99,,,-99.99,,2013-02-10 03:11:00,
2013-02-09 19:21:00,43.0,37.0,-100.00,NNE,16,1.0,2.0,78,-99.99,,,-99.99,,2013-02-10 03:21:00,
2013-02-09 19:31:00,42.0,37.0,-100.00,North,351,1.0,2.0,81,-99.99,,,-99.99,,2013-02-10 03:31:00,
2013-02-09 19:41:00,42.0,37.0,-100.00,NNW,344,1.0,4.0,81,-99.99,,,-99.99,,2013-02-10 03:41:00,
2013-02-09 19:51:00,42.0,37.0,-100.00,NNE,20,1.0,2.0,81,-99.99,,,-99.99,,2013-02-10 03:51:00,
2013-02-09 20:01:00,42.0,37.0,-100.00,NNW,348,1.0,3.0,82,-99.99,,,-99.99,,2013-02-10 04:01:00,
2013-02-09 20:11:00,42.0,37.0,-100.00,North,355,1.0,3.0,82,-99.99,,,-99.99,,2013-02-10 04:11:00,
2013-02-09 20:21:00,41.0,36.0,-100.00,NNW,346,1.0,3.0,83,-99.99,,,-99.99,,2013-02-10 04:21:00,
2013-02-09 20:31:00,41.0,37.0,-100.00,NNW,347,1.0,3.0,84,-99.99,,,-99.99,,2013-02-10 04:31:00,
2013-02-09 20:41:00,41.0,37.0,-100.00,NNW,341,1.0,5.0,84,-99.99,,,-99.99,,2013-02-10 04:41:00,
2013-02-09 20:51:00,41.0,37.0,-100.00,NNW,348,2.0,4.0,84,-99.99,,,-99.99,,2013-02-10 04:51:00,
2013-02-09 21:01:00,41.0,37.0,-100.00,NNW,348,1.0,3.0,84,-99.99,,,-99.99,,2013-02-10 05:01:00,
2013-02-09 21:11:00,41.0,37.0,-100.00,North,349,2.0,5.0,85,-99.99,,,-99.99,,2013-02-10 05:11:00,
2013-02-09 21:22:00,42.0,37.0,-100.00,NNW,341,3.0,5.0,81,-99.99,,,-99.99,,2013-02-10 05:22:00,
2013-02-09 21:31:00,41.0,36.0,-100.00,North,358,1.0,4.0,81,-99.99,,,-99.99,,2013-02-10 05:31:00,
2013-02-09 21:41:00,41.0,36.0,-100.00,North,350,1.0,4.0,82,-99.99,,,-99.99,,2013-02-10 05:41:00,
2013-02-09 21:52:00,41.0,36.0,-100.00,NNE,28,1.0,3.0,82,-99.99,,,-99.99,,2013-02-10 05:52:00,
2013-02-09 22:01:00,41.0,36.0,-100.00,NNE,15,1.0,1.0,83,-99.99,,,-99.99,,2013-02-10 06:01:00,
2013-02-09 22:11:00,40.0,35.0,-100.00,North,1,1.0,3.0,83,-99.99,,,-99.99,,2013-02-10 06:11:00,
2013-02-09 22:21:00,40.0,35.0,-100.00,NNW,337,1.0,3.0,83,-99.99,,,-99.99,,2013-02-10 06:21:00,
2013-02-09 22:32:00,40.0,36.0,-100.00,North,6,1.0,2.0,84,-99.99,,,-99.99,,2013-02-10 06:32:00,
2013-02-09 22:42:00,40.0,36.0,-100.00,NNW,338,1.0,2.0,85,-99.99,,,-99.99,,2013-02-10 06:42:00,
2013-02-09 22:51:00,40.0,36.0,-100.00,NNW,344,1.0,4.0,85,-99.99,,,-99.99,,2013-02-10 06:51:00,
2013-02-09 23:01:00,40.0,36.0,-100.00,NNW,338,1.0,4.0,85,-99.99,,,-99.99,,2013-02-10 07:01:00,
2013-02-09 23:11:00,40.0,36.0,-100.00,NNW,336,1.0,4.0,85,-99.99,,,-99.99,,2013-02-10 07:11:00,
2013-02-09 23:21:00,40.0,36.0,-100.00,NNW,342,1.0,3.0,84,-99.99,,,-99.99,,2013-02-10 07:21:00,
2013-02-09 23:31:00,40.0,36.0,-100.00,NNW,340,1.0,4.0,84,-99.99,,,-99.99,,2013-02-10 07:31:00,
2013-02-09 23:41:00,40.0,36.0,-100.00,NNW,340,2.0,5.0,84,-99.99,,,-99.99,,2013-02-10 07:41:00,
2013-02-09 23:51:00,40.0,35.0,-100.00,NNW,330,2.0,6.0,83,-99.99,,,-99.99,,2013-02-10 07:51:00,